Hourly Data Report for February 19, 2020

TORONTO CITY
ONTARIO
Current Station Operator: ECCC - MSC

43°40'00.000" N
79°24'00.000" W
112.50 m
6158355
71508
XTO

Download Data

Hourly Data (February 2020)
Hourly Data Report for February 19, 2020
TIME
LST
Temp Definition
°C
Dew Point Definition
°C
Rel Hum Definition
%
Precip. Amount Definition
mm

Wind Dir Definition
10's deg

Wind Spd Definition
km/h
Visibility Definition
km
Stn Press Definition
kPa
Hmdx Definition


Wind Chill Definition


Weather Definition


00:00 0.4 -7.1 57 0.0       100.62     LegendNANA
01:00 0.3 -7.5 56 0.0       100.69     LegendNANA
02:00 -0.5 -8.5 55 0.0       100.72     LegendNANA
03:00 -0.5 -7.9 57 0.0       100.78     LegendNANA
04:00 -0.8 -8.3 57 0.0       100.83     LegendNANA
05:00 -1.0 -9.2 54 0.0       100.91     LegendNANA
06:00 -1.3 -9.8 52 0.0       100.99     LegendNANA
07:00 -1.8 -9.8 54 0.0       101.07     LegendNANA
08:00 -2.1 -10.2 54 0.0       101.23     LegendNANA
09:00 -2.0 -9.5 56 0.0       101.37     LegendNANA
10:00 -2.9 -11.3 52 0.0       101.46     LegendNANA
11:00 -2.2 -11.9 48 0.0       101.55     LegendNANA
12:00 -2.4 -12.3 46 0.0       101.58     LegendNANA
13:00 -2.1 -12.0 47 0.0       101.53     LegendNANA
14:00 -1.5 -13.7 39 0.0       101.50     LegendNANA
15:00 -1.5 -12.1 44 0.0       101.49     LegendNANA
16:00 -2.0 -11.7 47 0.0       101.54     LegendNANA
17:00 -2.6 -12.5 46 0.0       101.56     LegendNANA
18:00 -3.4 -13.7 45 0.0       101.57     LegendNANA
19:00 -3.6 -13.7 45 0.0       101.62     LegendNANA
20:00 -3.8 -13.0 49 0.0       101.65     LegendNANA
21:00 -4.2 -11.3 57 0.0       101.66     LegendNANA
22:00 -4.6 -12.7 53 0.0       101.68     LegendNANA
23:00 -5.0 -13.2 53 0.0       101.68     LegendNANA

Notes on Data Quality.

Legend

  • E = Estimated
  • M = Missing
  • NA = Not Available*
  • [empty] = Indicates an unobserved value
Date modified: